Location: Baia Mare
(47.6567°N, 23.5850°E)
Time: 13:13:59
(UTC+02:00)

ISS - Pass Details

Date: 30 December 2018
Orbit: 401 x 408 km, 51.6° (Epoch: 16 December)

Event Time Altitude Azimuth Distance (km) Brightness Sun altitude
Exits shadow 07:32:20 - 282° (WNW) 1,599 -1.4 -6.9°
Reaches altitude 10° 07:32:40 10° 284° (WNW) 1,467 -1.6 -6.8°
Maximum altitude 07:35:48 40° 355° (N) 616 -3.2 -6.3°
Drops below altitude 10° 07:38:55 10° 67° (ENE) 1,465 -0.4 -5.9°
Sets 07:41:05 0° 75° (ENE) 2,324 0.8 -5.6°
